Regional Weather Roundup
Issued by NWS Goodland, KS

Home | Current Version | Previous Version | Graphics & Text | Print | Product List | Glossary On
Versions: 1 2 3 4 5 6 7 8 9 10 11 12 13 14 15 16 17 18 19 20 21 22 23 24 25 26 27 28 29 30 31 32 33 34 35 36 37 38 39 40 41 42 43 44 45 46 47 48 49 50
000
ASUS43 KGLD 262008
RWRGLD

GOODLAND FORECAST AREA HOURLY WEATHER ROUNDUP
NATIONAL WEATHER SERVICE GOODLAND KS
100 PM MST WED NOV 26 2014

...OFFICIAL OBSERVATIONS...

CITY           SKY/WX    TMP DP  RH WIND       PRES   REMARKS
GOODLAND KS    PTSUNNY   35  25  66 NW12      30.26F
HILL CITY KS   CLOUDY    39  19  44 N18       30.27S
IMPERIAL NEB   CLOUDY    34  21  59 N13       30.26S
MCCOOK NEB     CLOUDY    37  18  46 NW14      30.27S
AKRON CO       CLOUDY    29  24  82 S8        30.18F
BURLINGTON CO  PTSUNNY   33  25  72 NW7       30.24F
LIMON CO       SUNNY     36  23  59 E7        30.19F
$$

...UNOFFICIAL OBSERVATIONS...

CITY           SKY/WX    TMP DP  RH WIND       PRES   REMARKS
COLBY KS       CLOUDY    39  27  60 NW15      30.27R
GOVE KS          N/A     40  32  73 MISG        N/A
NORTON KS      CLOUDY    37  16  41 N15G25    30.26S
TRIBUNE KS     SUNNY     43  27  52 N15G21    30.27S
TRENTON NEB      N/A     36  32  85 NW12        N/A
YUMA CO          N/A     32  30  92 CALM        N/A
$$


USA.gov is the U.S. government's official web portal to all federal, state and local government web resources and services.